Location: Sungai Apap
(2.6167°N, 113.3833°E)
Time: 15:45:22
(UTC+00:00)

Cosmos 1484 Rocket - Pass Details

Date: 25 May 2024
Orbit: 481 x 521 km, 97.6° (Epoch: 12 June)

Event Time Altitude Azimuth Distance (km) Brightness Sun altitude
Rises 20:28:50 0° 12° (NNE) 2,621 6.8 -25.5°
Reaches altitude 10° 20:30:55 10° 13° (NNE) 1,741 5.8 -25.0°
Enters shadow 20:33:59 58° 20° (NNE) 607 3.1 -24.3°
